International Virtual Aviation Organisation

Russian Federation and Kazakhstan MCD

 

Карточка аэропорта URRP

Внимание!
Информация на этой странице в стадии наполнения.
Если вы не увидели какой-то информации, или заметили неточность - пожалуйста сообщите нам!
Спасибо!
Команда RU-STAFF
Название аэропортаПлатов
Название аэропорта (англ.)Platov
Превышение282 ft. (86 m.)
Координаты47°29.634', 39°55.482'
Высота перехода900
Эшелон перехода050
Коды ответчика1000-1017
Зона ОрВДРостов-на-Дону РПИ (URRV)
Данные METARURRP 281100Z 11005MPS CAVOK 09/04 Q1024 R05/CLRD70 TEMPO 14007G12MPS RMK QFE764/1018
Проноз погоды (TAF)URRP 280756Z 2809/2909 13003G10MPS 6000 BKN016 TEMPO 2809/2815 11006G13MPS TEMPO 2815/2906 11006G12MPS 3100 BR SCT011 FM290600 13009G16MPS 9999 BKN020
NOTAMshow/hide NOTAM
AWOS   TABLE

Информация о ВПП

ВПП Длина ВПП (м.) Покрытие Курс ВПП Частота ILS
053900Цементобетон46111.5
233900Цементобетон226110.9

Диспетчерские позиции

Позывной Наименование органа УВД Частота
URRP_TWRПлатов-вышка119.7
URRP_R_APPПлатов - Круг121.2
URRP_APPПлатов-подход128.2
URRP_GNDПлатов - руление119.0
URRP_DELПлатов-деливери127.1



Спутниковое изображение